| time (UTC) | temp F | wind direction | speed MPH | gust MPH | rain 1hr in | rain 24hr in | rain mn in | humidity % | barometer mb |
| 20260504004703 | 65 | 241 | 0.0 | 2.0 | 0.00 | 0.00 | 0.00 | 25 | 1003.7 |
| 20260504004203 | 65 | 240 | 0.0 | 3.0 | 0.00 | 0.00 | 0.00 | 25 | 1003.7 |
| 20260504003703 | 66 | 246 | 0.0 | 3.0 | 0.00 | 0.00 | 0.00 | 24 | 1003.7 |
| 20260504003203 | 66 | 0 | 0.0 | 3.0 | 0.00 | 0.00 | 0.00 | 24 | 1003.8 |
| 20260504002703 | 66 | 0 | 0.0 | 3.0 | 0.00 | 0.00 | 0.00 | 23 | 1003.8 |
| 20260504001703 | 66 | 239 | 0.0 | 7.0 | 0.00 | 0.00 | 0.00 | 24 | 1003.8 |
| 20260504001203 | 66 | 290 | 1.0 | 7.0 | 0.00 | 0.00 | 0.00 | 23 | 1003.8 |
| 20260504000703 | 67 | 355 | 1.0 | 7.0 | 0.00 | 0.00 | 0.00 | 22 | 1003.9 |
| 20260504000204 | 67 | 229 | 1.0 | 7.0 | 0.00 | 0.00 | 0.00 | 23 | 1003.8 |
| 20260503235704 | 67 | 341 | 0.0 | 3.0 | 0.00 | 0.00 | 0.00 | 23 | 1003.9 |
| 20260503235204 | 67 | 260 | 0.0 | 5.0 | 0.00 | 0.00 | 0.00 | 23 | 1003.9 |
| 20260503234202 | 68 | 20 | 1.0 | 6.0 | 0.00 | 0.00 | 0.00 | 22 | 1003.9 |
| 20260503233702 | 68 | 303 | 0.0 | 6.0 | 0.00 | 0.00 | 0.00 | 22 | 1003.8 |
| 20260503233203 | 68 | 334 | 2.0 | 10.0 | 0.00 | 0.00 | 0.00 | 24 | 1003.8 |
| 20260503232203 | 68 | 11 | 0.0 | 10.0 | 0.00 | 0.00 | 0.00 | 21 | 1003.9 |
| 20260503231704 | 68 | 6 | 3.0 | 10.0 | 0.00 | 0.00 | 0.00 | 19 | 1003.9 |
| 20260503231203 | 68 | 18 | 2.0 | 8.0 | 0.00 | 0.00 | 0.00 | 20 | 1004.1 |
| 20260503230703 | 68 | 227 | 1.0 | 9.0 | 0.00 | 0.00 | 0.00 | 21 | 1004.2 |
| 20260503230203 | 68 | 12 | 1.0 | 9.0 | 0.00 | 0.00 | 0.00 | 21 | 1004.2 |
| 20260503225702 | 68 | 25 | 1.0 | 9.0 | 0.00 | 0.00 | 0.00 | 21 | 1004.2 |
| 20260503224702 | 68 | 355 | 2.0 | 12.0 | 0.00 | 0.00 | 0.00 | 19 | 1004.3 |
| 20260503224203 | 68 | 357 | 2.0 | 12.0 | 0.00 | 0.00 | 0.00 | 20 | 1004.4 |
| 20260503223703 | 69 | 348 | 1.0 | 12.0 | 0.00 | 0.00 | 0.00 | 19 | 1004.4 |
| 20260503223203 | 69 | 354 | 2.0 | 12.0 | 0.00 | 0.00 | 0.00 | 20 | 1004.4 |
| 20260503222703 | 69 | 357 | 2.0 | 12.0 | 0.00 | 0.00 | 0.00 | 20 | 1004.4 |
| 20260503222203 | 69 | 324 | 3.0 | 12.0 | 0.00 | 0.00 | 0.00 | 21 | 1004.4 |
| 20260503221703 | 69 | 318 | 2.0 | 12.0 | 0.00 | 0.00 | 0.00 | 20 | 1004.4 |
| 20260503221203 | 69 | 1 | 1.0 | 12.0 | 0.00 | 0.00 | 0.00 | 21 | 1004.4 |
| 20260503220703 | 69 | 19 | 0.0 | 6.0 | 0.00 | 0.00 | 0.00 | 21 | 1004.4 |
| 20260503220203 | 69 | 3 | 1.0 | 8.0 | 0.00 | 0.00 | 0.00 | 19 | 1004.5 |
| 20260503215703 | 69 | 12 | 2.0 | 12.0 | 0.00 | 0.00 | 0.00 | 18 | 1004.6 |
| 20260503215203 | 70 | 22 | 4.0 | 12.0 | 0.00 | 0.00 | 0.00 | 18 | 1004.6 |
| 20260503214203 | 70 | 14 | 3.0 | 10.0 | 0.00 | 0.00 | 0.00 | 17 | 1004.7 |
| 20260503213703 | 70 | 147 | 1.0 | 12.0 | 0.00 | 0.00 | 0.00 | 20 | 1004.7 |
| 20260503213203 | 70 | 353 | 3.0 | 12.0 | 0.00 | 0.00 | 0.00 | 18 | 1004.8 |
| 20260503212703 | 70 | 7 | 3.0 | 12.0 | 0.00 | 0.00 | 0.00 | 18 | 1004.7 |
| 20260503212203 | 70 | 37 | 5.0 | 15.0 | 0.00 | 0.00 | 0.00 | 17 | 1004.7 |
| 20260503211203 | 71 | 18 | 3.0 | 14.0 | 0.00 | 0.00 | 0.00 | 19 | 1004.9 |
| 20260503210703 | 71 | 340 | 1.0 | 13.0 | 0.00 | 0.00 | 0.00 | 20 | 1004.8 |
| 20260503210203 | 70 | 336 | 2.0 | 13.0 | 0.00 | 0.00 | 0.00 | 21 | 1004.9 |
| 20260503205203 | 70 | 315 | 4.0 | 12.0 | 0.00 | 0.00 | 0.00 | 21 | 1005.1 |
| 20260503204704 | 70 | 12 | 4.0 | 13.0 | 0.00 | 0.00 | 0.00 | 20 | 1005.1 |
| 20260503203203 | 70 | 14 | 1.0 | 20.0 | 0.00 | 0.00 | 0.00 | 22 | 1005.3 |
| 20260503202703 | 70 | 317 | 1.0 | 12.0 | 0.00 | 0.00 | 0.00 | 22 | 1005.2 |
| 20260503202203 | 70 | 2 | 1.0 | 12.0 | 0.00 | 0.00 | 0.00 | 22 | 1005.2 |
| 20260503201703 | 70 | 22 | 2.0 | 12.0 | 0.00 | 0.00 | 0.00 | 23 | 1005.3 |
| 20260503201203 | 71 | 4 | 5.0 | 12.0 | 0.00 | 0.00 | 0.00 | 23 | 1005.3 |
| 20260503200703 | 71 | 349 | 3.0 | 10.0 | 0.00 | 0.00 | 0.00 | 24 | 1005.5 |
| 20260503200203 | 70 | 0 | 0.0 | 13.0 | 0.00 | 0.00 | 0.00 | 24 | 1005.4 |
| 20260503195203 | 70 | 26 | 3.0 | 13.0 | 0.00 | 0.00 | 0.00 | 24 | 1005.5 |
| 20260503194703 | 70 | 343 | 1.0 | 12.0 | 0.00 | 0.00 | 0.00 | 26 | 1005.6 |
| 20260503194203 | 70 | 23 | 2.0 | 14.0 | 0.00 | 0.00 | 0.00 | 26 | 1005.6 |
| 20260503193703 | 70 | 26 | 2.0 | 14.0 | 0.00 | 0.00 | 0.00 | 24 | 1005.7 |
| 20260503192703 | 69 | 136 | 1.0 | 13.0 | 0.00 | 0.00 | 0.00 | 25 | 1005.8 |
| 20260503191704 | 69 | 20 | 5.0 | 13.0 | 0.00 | 0.00 | 0.00 | 23 | 1005.9 |
| 20260503190703 | 68 | 21 | 3.0 | 16.0 | 0.00 | 0.00 | 0.00 | 23 | 1005.9 |
| 20260503190203 | 68 | 17 | 5.0 | 16.0 | 0.00 | 0.00 | 0.00 | 23 | 1005.8 |
| 20260503185703 | 68 | 24 | 2.0 | 12.0 | 0.00 | 0.00 | 0.00 | 24 | 1005.8 |
| 20260503184703 | 68 | 64 | 4.0 | 16.0 | 0.00 | 0.00 | 0.00 | 21 | 1006.0 |
| 20260503184202 | 68 | 6 | 6.0 | 16.0 | 0.00 | 0.00 | 0.00 | 23 | 1005.9 |
| 20260503183703 | 67 | 49 | 1.0 | 13.0 | 0.00 | 0.00 | 0.00 | 24 | 1006.0 |
| 20260503183203 | 67 | 44 | 3.0 | 13.0 | 0.00 | 0.00 | 0.00 | 25 | 1006.1 |
| 20260503182704 | 67 | 11 | 3.0 | 13.0 | 0.00 | 0.00 | 0.00 | 25 | 1006.1 |
| 20260503182203 | 67 | 42 | 2.0 | 14.0 | 0.00 | 0.00 | 0.00 | 25 | 1006.1 |
| 20260503181703 | 67 | 27 | 2.0 | 16.0 | 0.00 | 0.00 | 0.00 | 27 | 1006.2 |
| 20260503180703 | 67 | 5 | 5.0 | 14.0 | 0.00 | 0.00 | 0.00 | 27 | 1006.2 |
| 20260503180203 | 67 | 359 | 2.0 | 14.0 | 0.00 | 0.00 | 0.00 | 32 | 1006.3 |
| 20260503175203 | 67 | 346 | 4.0 | 16.0 | 0.00 | 0.00 | 0.00 | 31 | 1006.3 |
| 20260503174703 | 66 | 1 | 5.0 | 13.0 | 0.00 | 0.00 | 0.00 | 32 | 1006.3 |
| 20260503174203 | 66 | 36 | 3.0 | 12.0 | 0.00 | 0.00 | 0.00 | 33 | 1006.3 |
| 20260503173703 | 66 | 33 | 2.0 | 13.0 | 0.00 | 0.00 | 0.00 | 36 | 1006.4 |
| 20260503173203 | 66 | 26 | 3.0 | 13.0 | 0.00 | 0.00 | 0.00 | 32 | 1006.4 |
| 20260503172704 | 66 | 2 | 5.0 | 15.0 | 0.00 | 0.00 | 0.00 | 32 | 1006.5 |
| 20260503172203 | 66 | 17 | 6.0 | 15.0 | 0.00 | 0.00 | 0.00 | 31 | 1006.5 |
| 20260503170703 | 66 | 5 | 4.0 | 13.0 | 0.00 | 0.00 | 0.00 | 33 | 1006.4 |
| 20260503170203 | 66 | 5 | 2.0 | 10.0 | 0.00 | 0.00 | 0.00 | 34 | 1006.4 |
| 20260503160203 | 64 | 352 | 2.0 | 14.0 | 0.00 | 0.00 | 0.00 | 38 | 1006.2 |
| 20260503150703 | 61 | 52 | 1.0 | 14.0 | 0.00 | 0.00 | 0.00 | 40 | 1006.1 |
| 20260503150204 | 61 | 41 | 3.0 | 12.0 | 0.00 | 0.00 | 0.00 | 41 | 1006.0 |
| 20260503140203 | 57 | 27 | 2.0 | 13.0 | 0.00 | 0.00 | 0.00 | 44 | 1005.7 |
| 20260503131203 | 54 | 41 | 2.0 | 12.0 | 0.00 | 0.00 | 0.00 | 50 | 1005.1 |
| 20260503130703 | 54 | 26 | 2.0 | 9.0 | 0.00 | 0.00 | 0.00 | 50 | 1005.0 |
| 20260503130203 | 53 | 53 | 1.0 | 7.0 | 0.00 | 0.00 | 0.00 | 51 | 1005.0 |
| 20260503120204 | 51 | 293 | 0.0 | 2.0 | 0.00 | 0.00 | 0.00 | 50 | 1004.2 |
| 20260503110704 | 52 | 257 | 1.0 | 6.0 | 0.00 | 0.00 | 0.00 | 47 | 1003.7 |
| 20260503110204 | 52 | 260 | 0.0 | 6.0 | 0.00 | 0.00 | 0.00 | 47 | 1003.6 |
| 20260503100204 | 54 | 304 | 2.0 | 8.0 | 0.00 | 0.00 | 0.00 | 43 | 1004.0 |
| 20260503090204 | 55 | 236 | 2.0 | 9.0 | 0.00 | 0.00 | 0.00 | 42 | 1004.3 |
| 20260503081203 | 57 | 223 | 4.0 | 13.0 | 0.00 | 0.00 | 0.00 | 41 | 1004.8 |
| 20260503072702 | 58 | 294 | 2.0 | 12.0 | 0.00 | 0.00 | 0.00 | 43 | 1005.0 |
| 20260503072202 | 58 | 298 | 3.0 | 8.0 | 0.00 | 0.00 | 0.00 | 43 | 1005.1 |
| 20260503071702 | 58 | 277 | 0.0 | 9.0 | 0.00 | 0.00 | 0.00 | 43 | 1005.0 |
| 20260503071203 | 58 | 283 | 3.0 | 9.0 | 0.00 | 0.00 | 0.00 | 42 | 1005.2 |
| 20260503070703 | 58 | 222 | 1.0 | 9.0 | 0.00 | 0.00 | 0.00 | 42 | 1005.2 |
| 20260503070203 | 58 | 189 | 0.0 | 9.0 | 0.00 | 0.00 | 0.00 | 42 | 1005.3 |
| 20260503060203 | 57 | 335 | 2.0 | 8.0 | 0.00 | 0.00 | 0.00 | 44 | 1006.8 |
| 20260503054702 | 56 | 245 | 4.0 | 9.0 | 0.00 | 0.00 | 0.00 | 42 | 1006.7 |
| 20260503054202 | 56 | 228 | 3.0 | 8.0 | 0.00 | 0.00 | 0.00 | 43 | 1006.7 |
| 20260503053702 | 56 | 296 | 1.0 | 6.0 | 0.00 | 0.00 | 0.00 | 42 | 1006.9 |
| 20260503052703 | 56 | 282 | 1.0 | 5.0 | 0.00 | 0.00 | 0.00 | 43 | 1006.9 |
| 20260503052202 | 56 | 205 | 1.0 | 3.0 | 0.00 | 0.00 | 0.00 | 42 | 1007.0 |
| 20260503051203 | 56 | 188 | 1.0 | 3.0 | 0.00 | 0.00 | 0.00 | 42 | 1007.0 |
| 20260503050702 | 56 | 298 | 1.0 | 3.0 | 0.00 | 0.00 | 0.00 | 42 | 1007.0 |
| 20260503050203 | 56 | 226 | 0.0 | 8.0 | 0.00 | 0.00 | 0.00 | 42 | 1006.9 |
| 20260503045703 | 56 | 304 | 1.0 | 8.0 | 0.00 | 0.00 | 0.00 | 42 | 1007.0 |
| 20260503045203 | 56 | 239 | 2.0 | 8.0 | 0.00 | 0.00 | 0.00 | 41 | 1007.0 |
| 20260503044703 | 56 | 199 | 1.0 | 7.0 | 0.00 | 0.00 | 0.00 | 41 | 1007.1 |
| 20260503044203 | 57 | 200 | 2.0 | 9.0 | 0.00 | 0.00 | 0.00 | 41 | 1007.1 |
| 20260503043702 | 57 | 152 | 1.0 | 9.0 | 0.00 | 0.00 | 0.00 | 40 | 1007.2 |
| 20260503043202 | 57 | 226 | 2.0 | 9.0 | 0.00 | 0.00 | 0.00 | 40 | 1007.3 |
| 20260503042703 | 57 | 208 | 2.0 | 7.0 | 0.00 | 0.00 | 0.00 | 40 | 1007.3 |
| 20260503042203 | 57 | 226 | 1.0 | 10.0 | 0.00 | 0.00 | 0.00 | 40 | 1007.3 |
| 20260503041202 | 57 | 214 | 1.0 | 7.0 | 0.00 | 0.00 | 0.00 | 39 | 1007.5 |
| 20260503040702 | 58 | 213 | 1.0 | 7.0 | 0.00 | 0.00 | 0.00 | 39 | 1007.5 |
| 20260503040203 | 58 | 268 | 2.0 | 7.0 | 0.00 | 0.00 | 0.00 | 39 | 1007.6 |
| 20260503035702 | 58 | 236 | 1.0 | 7.0 | 0.00 | 0.00 | 0.00 | 39 | 1007.7 |
| 20260503035202 | 58 | 210 | 1.0 | 7.0 | 0.00 | 0.00 | 0.00 | 39 | 1007.7 |
| 20260503033703 | 58 | 190 | 0.0 | 6.0 | 0.00 | 0.00 | 0.00 | 38 | 1008.0 |
| 20260503033202 | 58 | 201 | 0.0 | 6.0 | 0.00 | 0.00 | 0.00 | 39 | 1008.1 |
| 20260503032703 | 59 | 223 | 0.0 | 3.0 | 0.00 | 0.00 | 0.00 | 39 | 1008.2 |
| 20260503032204 | 59 | 199 | 0.0 | 6.0 | 0.00 | 0.00 | 0.00 | 38 | 1008.2 |
| 20260503030703 | 59 | 221 | 0.0 | 3.0 | 0.00 | 0.00 | 0.00 | 38 | 1008.6 |
| 20260503030202 | 59 | 207 | 1.0 | 3.0 | 0.00 | 0.00 | 0.00 | 38 | 1008.7 |
| 20260503025703 | 59 | 199 | 0.0 | 3.0 | 0.00 | 0.00 | 0.00 | 38 | 1008.8 |
| 20260503025203 | 59 | 186 | 0.0 | 3.0 | 0.00 | 0.00 | 0.00 | 37 | 1008.8 |
| 20260503024703 | 60 | 198 | 0.0 | 3.0 | 0.00 | 0.00 | 0.00 | 37 | 1008.9 |
| 20260503024203 | 60 | 201 | 1.0 | 5.0 | 0.00 | 0.00 | 0.00 | 37 | 1009.0 |
| 20260503023702 | 60 | 187 | 1.0 | 5.0 | 0.00 | 0.00 | 0.00 | 36 | 1009.0 |
| 20260503023203 | 60 | 219 | 0.0 | 3.0 | 0.00 | 0.00 | 0.00 | 37 | 1009.2 |
| 20260503022702 | 60 | 249 | 0.0 | 3.0 | 0.00 | 0.00 | 0.00 | 36 | 1009.4 |
| 20260503022203 | 60 | 245 | 0.0 | 2.0 | 0.00 | 0.00 | 0.00 | 36 | 1009.5 |
| 20260503021702 | 60 | 252 | 0.0 | 3.0 | 0.00 | 0.00 | 0.00 | 37 | 1009.5 |
| 20260503021203 | 60 | 258 | 0.0 | 3.0 | 0.00 | 0.00 | 0.00 | 37 | 1009.4 |
| 20260503020703 | 60 | 254 | 0.0 | 3.0 | 0.00 | 0.00 | 0.00 | 36 | 1009.5 |
| 20260503020202 | 60 | 181 | 1.0 | 3.0 | 0.00 | 0.00 | 0.00 | 36 | 1009.5 |
| 20260503015703 | 61 | 0 | 0.0 | 3.0 | 0.00 | 0.00 | 0.00 | 35 | 1009.6 |
| 20260503015203 | 61 | 312 | 0.0 | 3.0 | 0.00 | 0.00 | 0.00 | 34 | 1009.6 |
| 20260503014703 | 61 | 296 | 0.0 | 6.0 | 0.00 | 0.00 | 0.00 | 35 | 1009.7 |
| 20260503014203 | 61 | 311 | 0.0 | 8.0 | 0.00 | 0.00 | 0.00 | 34 | 1009.8 |
| 20260503013703 | 61 | 344 | 0.0 | 10.0 | 0.00 | 0.00 | 0.00 | 34 | 1009.8 |
| 20260503012703 | 61 | 311 | 2.0 | 10.0 | 0.00 | 0.00 | 0.00 | 33 | 1009.8 |
| 20260503012202 | 61 | 338 | 1.0 | 7.0 | 0.00 | 0.00 | 0.00 | 33 | 1009.7 |
| 20260503011702 | 62 | 9 | 1.0 | 7.0 | 0.00 | 0.00 | 0.00 | 32 | 1009.7 |
| 20260503011203 | 62 | 38 | 3.0 | 12.0 | 0.00 | 0.00 | 0.00 | 31 | 1009.7 |
| 20260503010202 | 62 | 346 | 2.0 | 10.0 | 0.00 | 0.00 | 0.00 | 31 | 1009.8 |
| 20260503005702 | 62 | 348 | 2.0 | 14.0 | 0.00 | 0.00 | 0.00 | 31 | 1009.8 |
| 20260503005203 | 62 | 8 | 5.0 | 14.0 | 0.00 | 0.00 | 0.00 | 31 | 1009.9 |